[[{"header":{"parameterUnit":"m.s-1","parameterCategory":1,"la1":30.2991,"la2":30.254,"lo1":-89.0895,"lo2":-89.0444,"dy":0.0017,"dx":0.0017,"nx":28,"ny":28,"refTime":"2024-05-17T09:00:00:Z","depth":0,"parameterNumber":2,"parameterNumberName":"U-component_of_WINDS"},"data":[0,0,0,0,0,0,0,0,0,0,0,0,0,0,0,0,0,0,0,0,0,0,0,0,0,0,0,0,0,0,0,0,0,0,0,0,0,0,0,0,0,0,0,0,0,0,0,0,0,0,0,0,0,0,0,0,0,0,1.7319,1.732,0,1.7401,1.7402,1.7403,1.7352,1.735,1.7347,1.7345,1.7431,1.7436,1.744,0,0,0,0,0,0,0,0,0,0,0,0,0,1.712,1.7124,1.7319,1.732,1.7321,1.7401,1.7402,1.7403,1.7353,1.735,1.7347,1.7344,1.743,1.7435,1.7441,0,0,0,0,0,0,0,0,0,0,0,0,0,1.7205,1.7125,1.7319,1.7306,1.7305,1.7401,1.7402,1.7404,1.7353,1.735,1.7346,1.7343,1.7428,1.7435,1.7441,1.7556,0,0,1.7462,1.7465,0,0,0,0,0,0,0,0,1.72,1.7212,1.7307,1.7307,1.7306,1.7363,1.7363,1.7455,1.7354,1.7335,1.7345,1.7341,1.7412,1.7419,1.7443,1.756,1.7563,1.7463,1.7467,1.747,1.7472,0,0,0,0,0,0,0,1.7194,1.7208,1.7352,1.7308,1.7308,1.7296,1.7304,1.738,1.7393,1.7337,1.7333,1.7343,1.7411,1.7436,1.7445,1.7565,1.7463,1.7469,1.7473,1.7475,1.7777,1.778,0,0,0,0,0,0,1.7189,1.7204,1.7349,1.7354,1.7243,1.7302,1.7311,1.7348,1.7392,1.7395,1.7346,1.7341,1.7427,1.7437,1.7447,1.7583,1.747,1.7476,1.748,1.7773,1.7778,1.7782,0,0,0,0,0,0,1.7185,1.7202,1.7346,1.7278,1.7295,1.7309,1.7352,1.7352,1.7377,1.7399,1.7401,1.737,1.7424,1.7438,1.7528,1.7585,1.7479,1.7485,1.7768,1.7774,1.778,1.7855,0,0,0,0,0,0,1.7179,1.7201,1.7245,1.7279,1.7299,1.7426,1.7355,1.7356,1.7389,1.7382,1.7422,1.7425,1.7422,1.7518,1.7535,1.7592,1.7491,1.7763,1.7771,1.7778,1.7848,1.7863,1.7876,0,0,0,0,0,1.7172,1.7264,1.7247,1.7265,1.7354,1.7429,1.7441,1.7435,1.7394,1.7438,1.7451,1.7424,1.7576,1.7528,1.7547,1.7607,1.776,1.7769,1.7777,1.7841,1.786,1.7875,0,0,0,0,0,0,1.7237,1.7268,1.725,1.7356,1.739,1.742,1.7476,1.7455,1.7502,1.7494,1.7486,1.7495,1.7589,1.7607,1.7553,1.7718,1.7661,1.7674,1.7704,1.7721,1.7735,1.7729,1.7496,0,0,0,0,0,1.7263,1.7321,1.7346,1.7436,1.7454,1.7462,1.7495,1.7487,1.7523,1.7537,1.7557,1.7594,1.7649,1.7686,1.7739,1.7849,1.7857,1.79,1.7914,1.7925,1.7937,1.7995,1.8014,1.7811,1.7811,1.7811,0,0,1.7319,1.7343,1.738,1.745,1.7475,1.7536,1.7475,1.7542,1.7586,1.7548,1.7634,1.765,1.7689,1.779,1.7835,1.7808,1.7994,1.7936,1.7945,1.7951,1.8006,1.8025,1.8042,1.7817,1.7816,1.7815,0,0,1.745,1.7475,1.7552,1.7578,1.7618,1.7622,1.764,1.7674,1.7682,1.7768,1.774,1.7793,1.789,1.7918,1.7945,1.8085,1.8061,1.8103,1.8176,1.8233,1.8249,1.8263,1.8312,1.833,1.8114,1.8114,1.8114,0,1.7514,1.7604,1.7594,1.7663,1.7694,1.766,1.7738,1.7764,1.7819,1.7841,1.7809,1.7927,1.7952,1.8058,1.8092,1.8115,1.8135,1.8098,1.8247,1.8262,1.8275,1.8321,1.834,1.8119,1.8118,1.8118,1.8117,0,1.768,1.7743,1.78,1.7852,1.789,1.7963,1.7964,1.8003,1.7991,1.7999,1.8086,1.8114,1.817,1.8195,1.8185,1.8299,1.8281,1.8248,1.8191,1.8299,1.8342,1.836,1.8125,1.8124,1.8122,1.8121,0,0,1.7856,1.7901,1.7922,1.7944,1.7984,1.8032,1.8103,1.8157,1.819,1.8229,1.8287,1.8368,1.8338,1.8369,1.8362,1.8412,1.8519,1.8373,1.8373,1.8398,1.8645,1.8669,1.869,1.8503,1.8506,1.8509,1.8641,0,1.799,1.8113,1.8105,1.8221,1.8278,1.8245,1.8307,1.8338,1.8346,1.8395,1.8405,1.8462,1.8418,1.8436,1.8484,1.8496,1.8568,1.8486,1.8557,1.856,1.8548,1.8712,1.8739,1.8862,1.8658,1.8661,1.8663,0,1.8162,1.8205,1.8326,1.8355,1.8379,1.8434,1.8482,1.853,1.8564,1.8566,1.8599,1.8583,1.8654,1.8594,1.8691,1.8635,1.8664,1.8674,1.8678,1.8685,1.8618,1.8723,1.8901,1.892,1.869,1.8688,1.8686,0,1.8277,1.8365,1.8448,1.8469,1.8506,1.8545,1.8562,1.8592,1.8624,1.8666,1.8687,1.8737,1.8765,1.8804,1.8801,1.8758,1.8899,1.8839,1.8903,1.8903,1.8934,1.8932,1.9119,1.8953,1.8953,1.8953,1.8952,0,1.8427,1.8502,1.85,1.8552,1.8634,1.8625,1.8707,1.872,1.8746,1.8799,1.8774,1.8824,1.8818,1.8868,1.8867,1.8946,1.8959,1.8963,1.8961,1.8965,1.8964,1.8984,1.8975,1.8957,1.8956,1.8955,1.8955,0,1.857,1.8572,1.8661,1.8687,1.8696,1.8755,1.8778,1.8826,1.8831,1.8898,1.8914,1.8922,1.898,1.8981,1.9047,1.9046,1.9143,1.9132,1.9131,1.9129,1.9192,1.9186,1.9398,1.9425,1.9241,1.9243,1.9245,0,1.8666,1.8722,1.8754,1.8788,1.8807,1.8861,1.8893,1.8885,1.892,1.8961,1.9004,1.9059,1.9103,1.9196,1.9208,1.9258,1.9248,1.9319,1.9255,1.9256,1.9248,1.9244,1.9249,1.9331,1.9333,1.9335,1.9336,0,1.8834,1.8832,1.8879,1.8927,1.8966,1.9003,1.9037,1.9066,1.9062,1.9102,1.916,1.9193,1.926,1.9314,1.9362,1.9379,1.9357,1.9356,1.9373,1.9377,1.9374,1.9375,1.9165,1.9351,1.935,1.9349,1.9348,1.9347,1.8956,1.9004,1.9034,1.9087,1.9111,1.9144,1.919,1.92,1.9248,1.9301,1.9293,1.9358,1.9388,1.9449,1.9471,1.952,1.9496,1.9521,1.9527,1.9533,1.954,1.9366,1.9529,1.9529,1.9528,1.9528,1.9528,0,1.9122,1.9139,1.9188,1.9236,1.9278,1.9252,1.9288,1.9325,1.9381,1.9411,1.9454,1.9519,1.9571,1.9587,1.9637,1.9674,1.9664,1.9687,1.9684,1.9688,1.9559,1.9539,1.9693,1.9693,1.9693,1.9693,1.9693,1.9693,1.9214,1.9294,1.9294,1.9386,1.9402,1.9464,1.9487,1.9516,1.9539,1.9614,1.9656,1.9666,1.9689,1.974,1.9787,1.979,1.9809,1.9835,1.9834,1.9714,1.9697,1.9682,1.9662,1.984,1.984,1.9959,1.996,1.9961]},{"header":{"parameterUnit":"m.s-1","parameterCategory":1,"la1":30.2991,"la2":30.254,"lo1":-89.0895,"lo2":-89.0444,"dy":0.0017,"dx":0.0017,"nx":28,"ny":28,"refTime":"2024-05-17T09:00:00:Z","depth":0,"parameterNumber":3,"parameterNumberName":"V-component_of_WINDS"},"data":[0,0,0,0,0,0,0,0,0,0,0,0,0,0,0,0,0,0,0,0,0,0,0,0,0,0,0,0,0,0,0,0,0,0,0,0,0,0,0,0,0,0,0,0,0,0,0,0,0,0,0,0,0,0,0,0,0,0,5.1608,5.161,0,5.1812,5.1814,5.1817,5.1806,5.1803,5.18,5.1797,5.2,5.2008,5.2016,0,0,0,0,0,0,0,0,0,0,0,0,0,5.1199,5.1207,5.1607,5.161,5.1613,5.1812,5.1814,5.1817,5.1806,5.1803,5.1799,5.1796,5.1997,5.2007,5.2016,0,0,0,0,0,0,0,0,0,0,0,0,0,5.1387,5.1209,5.1607,5.1631,5.1635,5.1811,5.1814,5.1818,5.1807,5.1802,5.1798,5.1794,5.1994,5.2006,5.2018,5.2181,0,0,5.2055,5.206,0,0,0,0,0,0,0,0,5.1377,5.1402,5.1625,5.163,5.1635,5.1779,5.1745,5.1939,5.1808,5.1742,5.1797,5.1792,5.1929,5.1947,5.1994,5.219,5.2199,5.2056,5.2063,5.2069,5.2072,0,0,0,0,0,0,0,5.1364,5.1393,5.1688,5.1628,5.1634,5.1629,5.1651,5.1782,5.1857,5.1747,5.1747,5.1771,5.1931,5.1983,5.1999,5.2202,5.2056,5.2067,5.2074,5.2079,5.2538,5.2543,0,0,0,0,0,0,5.1346,5.1383,5.1682,5.1694,5.1493,5.164,5.1665,5.1737,5.1856,5.187,5.1775,5.177,5.1964,5.1985,5.2006,5.2204,5.2069,5.208,5.2087,5.2533,5.2539,5.2545,0,0,0,0,0,0,5.1338,5.1373,5.1673,5.1539,5.1576,5.1652,5.1733,5.1743,5.1795,5.1877,5.189,5.1814,5.1961,5.1989,5.2137,5.221,5.2085,5.2097,5.2528,5.2535,5.2542,5.26,0,0,0,0,0,0,5.1326,5.137,5.1435,5.154,5.1584,5.1804,5.1738,5.175,5.1817,5.1812,5.1917,5.193,5.196,5.2119,5.2149,5.2225,5.2106,5.2521,5.2531,5.254,5.2592,5.2609,5.2623,0,0,0,0,0,5.1312,5.1442,5.1438,5.1475,5.1667,5.1808,5.1833,5.1866,5.1823,5.1887,5.1939,5.1927,5.2197,5.2134,5.2168,5.2249,5.2517,5.2528,5.2539,5.2585,5.2605,5.2623,0,0,0,0,0,0,5.1342,5.1457,5.1454,5.1623,5.1706,5.1806,5.1889,5.1887,5.1982,5.1974,5.2009,5.2033,5.2181,5.2229,5.2157,5.2411,5.2351,5.2369,5.2375,5.2395,5.241,5.2395,5.2116,0,0,0,0,0,5.1369,5.1477,5.157,5.171,5.1752,5.1813,5.1876,5.1894,5.1981,5.2016,5.2079,5.2161,5.2264,5.2332,5.2432,5.2598,5.262,5.267,5.2685,5.2697,5.2713,5.2803,5.2826,5.2581,5.2581,5.258,0,0,5.1425,5.15,5.1566,5.1718,5.1785,5.1893,5.1843,5.196,5.204,5.2033,5.2177,5.2226,5.232,5.2478,5.255,5.2523,5.2785,5.2711,5.2721,5.273,5.2816,5.2839,5.286,5.2588,5.2587,5.2586,0,0,5.1582,5.1651,5.1775,5.1843,5.1945,5.1984,5.2014,5.2114,5.2147,5.2293,5.2289,5.2382,5.256,5.2627,5.2684,5.2864,5.2855,5.2895,5.2975,5.3062,5.3081,5.3099,5.3162,5.3184,5.291,5.291,5.291,0,5.1638,5.1804,5.1838,5.1957,5.2022,5.2022,5.2146,5.2209,5.2337,5.2381,5.2348,5.257,5.2634,5.2806,5.285,5.2896,5.2929,5.2884,5.3076,5.3094,5.3111,5.3171,5.3195,5.2914,5.2914,5.2913,5.2913,0,5.1867,5.1982,5.2069,5.2195,5.2271,5.2391,5.244,5.2512,5.2522,5.2564,5.2711,5.2786,5.2901,5.2942,5.2954,5.3116,5.3095,5.3069,5.301,5.3138,5.3195,5.3218,5.292,5.2918,5.2917,5.2916,0,0,5.2052,5.2195,5.2226,5.2282,5.2394,5.2482,5.26,5.2713,5.2773,5.286,5.2959,5.3109,5.3085,5.3149,5.3167,5.3244,5.3379,5.3208,5.321,5.3236,5.3561,5.358,5.3607,5.3374,5.3378,5.3382,5.3553,0,5.2221,5.2435,5.2468,5.2655,5.276,5.2759,5.2862,5.2939,5.2981,5.3073,5.3117,5.3223,5.3183,5.3222,5.3297,5.3347,5.3445,5.3335,5.3464,5.3468,5.3441,5.3637,5.3659,5.3816,5.3575,5.3579,5.3582,0,5.2448,5.2543,5.2741,5.2837,5.2882,5.2974,5.3079,5.3169,5.3255,5.3279,5.3351,5.3359,5.3478,5.3413,5.3577,5.3501,5.3555,5.3587,5.3593,5.3607,5.3533,5.3656,5.3868,5.3891,5.3618,5.3615,5.3612,0,5.2562,5.2739,5.2881,5.2929,5.3044,5.3108,5.3159,5.3241,5.3306,5.3397,5.3439,5.3542,5.3598,5.3675,5.371,5.3659,5.3871,5.3808,5.3892,5.3892,5.3938,5.3935,5.4162,5.3972,5.3972,5.3971,5.3971,0,5.2748,5.2869,5.2934,5.3021,5.3155,5.3189,5.332,5.3368,5.3441,5.3534,5.3539,5.3626,5.3666,5.3758,5.3785,5.3915,5.394,5.3962,5.3967,5.3962,5.3959,5.3998,5.3988,5.3978,5.3976,5.3975,5.3974,0,5.2899,5.2948,5.3102,5.3198,5.3224,5.3319,5.3399,5.3482,5.3521,5.364,5.3669,5.3731,5.3839,5.3881,5.4013,5.4031,5.4181,5.4178,5.4153,5.4155,5.4236,5.4228,5.4497,5.4533,5.4319,5.4321,5.4323,0,5.3015,5.3109,5.3215,5.3279,5.3332,5.3435,5.3502,5.3538,5.3606,5.371,5.378,5.3888,5.3978,5.415,5.4205,5.4305,5.4304,5.4391,5.4319,5.431,5.4305,5.4299,5.4308,5.4405,5.4407,5.4409,5.441,0,5.3215,5.3234,5.3332,5.3438,5.3518,5.3603,5.3684,5.3736,5.3783,5.386,5.3972,5.4041,5.4176,5.4283,5.4386,5.4433,5.4429,5.4432,5.4457,5.4453,5.4434,5.4445,5.419,5.4426,5.4425,5.4423,5.4423,5.4422,5.3353,5.3435,5.3523,5.363,5.3696,5.3772,5.3854,5.3904,5.3999,5.4113,5.4127,5.4247,5.4327,5.4465,5.4517,5.4609,5.4586,5.4622,5.4631,5.4639,5.4645,5.4419,5.4628,5.4627,5.4627,5.4627,5.4626,0,5.3553,5.3609,5.3708,5.3823,5.3907,5.3897,5.3986,5.4056,5.4163,5.4239,5.4327,5.4454,5.4557,5.4619,5.4722,5.4783,5.4783,5.4809,5.4805,5.4816,5.466,5.4629,5.4807,5.4807,5.4807,5.4807,5.4806,5.4806,5.3667,5.3806,5.3835,5.4004,5.4058,5.4178,5.4229,5.4298,5.4359,5.4502,5.4589,5.4629,5.4698,5.4806,5.4898,5.4914,5.4951,5.4978,5.4991,5.4845,5.4827,5.4809,5.4779,5.4986,5.4986,5.5139,5.514,5.5141]}]]